This is the latest recevied weather packets stored in our database for station/object BG5HLN-13. If no packets are shown the sender has not sent any weather packets the latest 10 day(s).
| Time | Temp. | Humidity | Pressure | Rain* | Wind** | Luminosity | Snow |
|---|---|---|---|---|---|---|---|
| 1788330407 | 30° C | 88% | 1006.2 hPa | 0.51 mm | - | - | - |
| 1788329807 | 30° C | 88% | 1006.2 hPa | 0.51 mm | - | - | - |
| 1788329207 | 30° C | 88% | 1006.3 hPa | 0.51 mm | - | - | - |
| 1788328607 | 29.44° C | 89% | 1006.4 hPa | 1.52 mm | - | - | - |
| 1788328007 | 29.44° C | 89% | 1006.6 hPa | 1.52 mm | - | - | - |
| 1788327407 | 29.44° C | 90% | 1006.4 hPa | 2.54 mm | - | - | - |
| 1788326807 | 28.89° C | 90% | 1006.7 hPa | 1.78 mm | - | - | - |
| 1788326207 | 28.33° C | 91% | 1006.9 hPa | 2.29 mm | - | - | - |
| 1788325607 | 28.33° C | 90% | 1007 hPa | 2.29 mm | - | - | - |
| 1788325007 | 28.33° C | 91% | 1007 hPa | 8.89 mm | - | - | - |
| 1788324407 | 28.33° C | 93% | 1007.1 hPa | 9.14 mm | - | - | - |
| 1788323807 | 28.33° C | 92% | 1007.2 hPa | 8.13 mm | - | - | - |
| 1788323206 | 28.89° C | 91% | 1007.1 hPa | 8.38 mm | - | - | - |
| 1788322607 | 29.44° C | 91% | 1006.7 hPa | 9.14 mm | - | - | - |
| 1788322006 | 29.44° C | 91% | 1006.8 hPa | 9.4 mm | - | - | - |
| 1788321406 | 29.44° C | 90% | 1006.8 hPa | 2.29 mm | - | - | - |
| 1788320812 | 29.44° C | 90% | 1006.9 hPa | 1.78 mm | - | - | - |
| 1788320207 | 29.44° C | 91% | 1006.8 hPa | 2.29 mm | - | - | - |
| 1788319607 | 30° C | 90% | 1006.9 hPa | 1.78 mm | - | - | - |
| 1788319006 | 30° C | 90% | 1006.9 hPa | 0.76 mm | - | - | - |
| 1788318406 | 30° C | 90% | 1006.7 hPa | 0.51 mm | - | - | - |
| 1788317806 | 30° C | 89% | 1006.7 hPa | 0.51 mm | - | - | - |
| 1788317206 | 30.56° C | 89% | 1007 hPa | 0.51 mm | - | - | - |
| 1788316607 | 30.56° C | 86% | 1007.2 hPa | 0.25 mm | - | - | - |
| 1788316007 | 31.11° C | 84% | 1007.2 hPa | 0.76 mm | - | - | - |
* Rain latest hour (hover to see other rain measurements)
** Current wind speed in m/s (hover to see current wind gust speed)